Stations météo

Publicité
Köln-Bonn, Allemagne (10513): Température de l'air & dewpoint: 19.09.2018 16:00:00 - 25.09.2018 16:00:00 (CEST)Köln-Bonn, Allemagne (10513): Température de l'air 5cm & Température de l'air -5cm: 19.09.2018 16:00:00 - 25.09.2018 16:00:00 (CEST)Köln-Bonn, Allemagne (10513): Température de l'air -20cm & Température de l'air -100cm: 19.09.2018 16:00:00 - 25.09.2018 16:00:00 (CEST)Köln-Bonn, Allemagne (10513): Vitesse du vent & gusts: 19.09.2018 16:00:00 - 25.09.2018 16:00:00 (CEST)Köln-Bonn, Allemagne (10513): Direction du vent: 19.09.2018 16:00:00 - 25.09.2018 16:00:00 (CEST)Köln-Bonn, Allemagne (10513): reduced air pressure: 19.09.2018 16:00:00 - 25.09.2018 16:00:00 (CEST)Köln-Bonn, Allemagne (10513): visibility: 19.09.2018 16:00:00 - 25.09.2018 16:00:00 (CEST)Köln-Bonn, Allemagne (10513): Ensoleillement: 19.09.2018 16:00:00 - 25.09.2018 16:00:00 (CEST)Köln-Bonn, Allemagne (10513): Quantités de précipitations: 19.09.2018 16:00:00 - 25.09.2018 16:00:00 (CEST)
Date & Time tt [°C] td [°C] tt 5cm [°C] tt -5cm [°C] tt -20cm [°C] tt -100cm [°C] ff [km/h] ff [knt] fx [km/h] fx [knt] dd ppp [hPa] vv [km] sd [min] rr [mm]
25.09.2018 16:00:00 15,1 3,2 17,2 19,9 14,4 17,3 8 4 17 9 - 1038,3 10 60 0,0
25.09.2018 15:00:00 15,2 4,2 19,2 19,8 13,6 17,3 11 6 18 10 SE 1039,2 55 60 0,0
25.09.2018 14:00:00 14,0 3,1 18,3 18,7 12,8 17,3 5 3 15 8 - 1039,7 10 43 0,0
25.09.2018 13:00:00 14,0 4,6 18,9 17,8 12,0 17,3 8 4 13 7 - 1039,9 10 59 0,0
25.09.2018 12:00:00 12,9 6,6 15,9 15,1 11,2 17,4 5 3 9 5 WNW 1040,1 20 60 0,0
25.09.2018 11:00:00 10,4 6,1 12,5 12,1 10,8 17,4 4 2 5 3 - 1040,3 10 60 0,0
25.09.2018 10:00:00 8,2 5,7 8,7 8,9 10,6 17,4 4 2 8 4 - 1039,9 10 60 0,0
25.09.2018 09:00:00 5,5 4,6 6,0 6,4 10,8 17,4 5 3 11 6 ENE 1039,4 10 47 0,0
25.09.2018 08:00:00 2,8 2,5 1,3 5,8 11,0 17,4 5 3 11 6 ESE 1039,3 13 0 0,0
25.09.2018 07:00:00 1,7 1,2 0,5 6,0 11,3 17,5 4 2 13 7 - 1038,8 10 0 0,0
25.09.2018 06:00:00 2,1 1,9 0,8 6,5 11,6 17,5 8 4 13 7 ESE 1038,6 45 0 0,0
25.09.2018 05:00:00 3,4 3,0 2,2 6,9 11,9 17,5 11 6 11 6 NE 1038,6 10 0 0,0
25.09.2018 04:00:00 3,7 3,2 2,2 7,4 12,1 17,5 8 4 15 8 ENE 1038,6 10 0 0,0
25.09.2018 03:00:00 5,0 4,7 3,2 7,8 12,4 17,6 10 5 11 6 E 1038,4 50 0 0,0
25.09.2018 02:00:00 5,5 5,0 4,1 8,3 12,7 17,6 8 4 11 6 E 1038,1 50 0 0,0
25.09.2018 01:00:00 6,6 5,8 4,8 8,9 12,9 17,6 5 3 8 4 ESE 1037,9 55 0 0,0
25.09.2018 00:00:00 6,6 5,6 5,1 9,3 13,2 17,6 3 2 5 3 ESE 1037,8 55 0 0,0
24.09.2018 23:00:00 6,6 5,5 4,8 9,5 13,5 17,7 2 1 11 6 - 1037,1 10 0 0,0
24.09.2018 22:00:00 7,6 5,8 5,5 10,1 13,8 17,7 7 4 11 6 NW 1036,6 55 0 0,0
24.09.2018 21:00:00 9,1 5,9 5,6 10,8 14,0 17,7 5 3 19 10 NNW 1035,8 10 0 0,0
24.09.2018 20:00:00 9,9 5,9 7,1 11,5 14,2 17,8 9 5 24 13 WNW 1035,0 60 4 0,0
24.09.2018 19:00:00 11,7 5,1 10,5 12,7 14,4 17,8 18 10 36 20 WNW 1034,3 60 29 0,0
24.09.2018 18:00:00 12,9 5,4 12,8 13,8 14,4 17,8 24 13 40 22 NW 1034,0 10 34 0,0
24.09.2018 17:00:00 13,1 5,8 13,5 14,0 14,3 17,8 18 10 36 20 W 1034,1 10 17 0,0
24.09.2018 16:00:00 12,3 6,1 10,9 15,0 14,1 17,9 28 15 48 26 WNW 1034,1 10 20 0,0
24.09.2018 15:00:00 14,2 5,9 15,1 14,7 13,9 17,9 20 11 40 22 WNW 1034,0 60 25 0,0
24.09.2018 14:00:00 13,0 6,0 13,1 15,2 13,6 17,9 24 13 45 24 WNW 1034,3 10 15 0,0
24.09.2018 13:00:00 13,7 5,4 14,9 14,8 13,2 18,0 21 11 31 17 NW 1033,7 50 24 0,0
24.09.2018 12:00:00 13,3 6,2 14,9 14,8 12,7 18,0 14 8 29 16 WNW 1033,9 45 48 0,0
24.09.2018 11:00:00 11,9 6,8 14,2 12,9 12,3 18,0 18 10 28 15 WNW 1033,8 30 60 0,0
24.09.2018 10:00:00 10,1 7,2 11,0 10,7 12,2 18,0 9 5 18 10 W 1033,0 30 60 0,0
24.09.2018 09:00:00 8,0 6,2 8,5 8,5 12,4 18,0 10 5 15 8 WNW 1032,3 25 41 0,0
24.09.2018 08:00:00 5,7 5,2 3,8 7,9 12,6 18,1 7 4 13 7 W 1031,5 15 0 0,0
24.09.2018 07:00:00 5,8 5,4 3,5 8,3 12,9 18,1 7 4 18 10 W 1030,6 10 0 0,0
24.09.2018 06:00:00 6,3 6,1 3,9 8,9 13,2 18,1 8 4 14 8 W 1029,8 35 0 0,0
24.09.2018 05:00:00 7,0 6,5 4,8 9,5 13,4 18,1 5 3 12 7 WSW 1029,0 10 0 0,4
24.09.2018 04:00:00 8,2 7,3 7,1 9,6 13,6 18,2 6 4 16 9 WNW 1028,4 20 0 0,0
24.09.2018 03:00:00 7,7 7,1 5,9 10,1 13,8 18,2 8 4 15 8 W 1027,3 25 0 0,0
24.09.2018 02:00:00 8,0 7,2 6,5 10,8 14,0 18,2 9 5 26 14 NW 1026,4 10 0 0,0
24.09.2018 01:00:00 8,9 8,0 8,4 11,1 14,2 18,2 14 7 22 12 WNW 1025,0 35 0 0,0
24.09.2018 00:00:00 9,2 8,2 8,7 11,2 14,3 18,2 15 8 29 16 NW 1023,6 10 0 0,0
23.09.2018 23:00:00 9,0 8,1 8,7 11,3 14,5 18,3 16 8 29 16 NW 1022,2 40 0 0,5
23.09.2018 22:00:00 8,9 8,3 8,6 11,4 14,8 18,3 14 8 26 14 WNW 1020,6 18 0 0,2
23.09.2018 21:00:00 8,7 7,7 8,3 11,8 15,1 18,3 17 9 29 16 NW 1018,7 25 0 0,5
23.09.2018 20:00:00 9,0 7,9 8,6 12,3 15,3 18,3 24 13 46 25 NNW 1016,5 25 0 0,7
23.09.2018 19:00:00 10,2 8,7 9,8 13,2 15,5 18,3 20 11 35 19 NNW 1013,4 10 0 0,0
23.09.2018 18:00:00 10,8 9,3 10,6 13,8 15,6 18,4 18 10 45 24 NNW 1011,1 10 0 0,0
23.09.2018 17:00:00 11,4 10,2 11,4 14,4 15,7 18,4 28 15 41 22 NNW 1009,1 40 1 0,1
23.09.2018 16:00:00 11,7 11,3 12,1 14,2 15,8 18,4 20 11 52 28 NNW 1008,0 20 0 5,8
23.09.2018 15:00:00 12,4 12,0 12,4 15,0 15,9 18,4 21 11 45 24 NNW 1005,9 7 0 7,2
23.09.2018 14:00:00 13,1 12,5 13,4 16,1 15,7 18,5 18 10 24 13 NNW 1006,2 8 0 2,2
23.09.2018 13:00:00 13,8 12,5 14,3 16,7 15,4 18,5 4 2 8 4 - 1007,4 9 0 0,3
23.09.2018 12:00:00 13,1 12,0 13,9 15,6 15,2 18,5 5 3 11 6 ESE 1009,2 6 0 0,2
23.09.2018 11:00:00 12,5 11,7 13,3 14,6 15,1 18,5 8 4 13 7 ENE 1010,4 5 0 0,8
23.09.2018 10:00:00 11,8 11,2 12,2 13,6 15,0 18,5 8 5 14 7 E 1010,9 3,5 0 0,4
23.09.2018 09:00:00 11,4 10,9 11,4 13,0 15,1 18,6 9 5 13 7 E 1011,3 4,5 0 0,3
23.09.2018 08:00:00 11,0 10,6 10,9 12,7 15,2 18,6 9 5 16 9 E 1011,8 5 0 0,4
23.09.2018 07:00:00 10,9 10,4 10,7 12,7 15,3 18,6 11 6 20 11 E 1012,4 6 0 1,0
23.09.2018 06:00:00 10,8 10,2 10,6 12,7 15,4 18,6 14 8 21 11 ESE 1013,2 9 0 0,9
23.09.2018 05:00:00 10,8 10,1 10,6 12,7 15,5 18,6 9 5 18 10 ESE 1014,4 6 0 0,8
23.09.2018 04:00:00 10,8 10,3 10,6 12,8 15,6 18,7 13 7 18 10 ESE 1015,4 12 0 0,5
23.09.2018 03:00:00 10,7 10,2 10,5 12,9 15,8 18,7 11 6 15 8 SE 1016,7 6 0 0,1
23.09.2018 02:00:00 10,6 9,9 10,4 13,0 15,9 18,7 11 6 13 7 ESE 1017,4 8 0 0,4
23.09.2018 01:00:00 10,4 9,8 10,2 13,2 16,0 18,7 9 5 13 7 E 1018,2 8 0 0,5
23.09.2018 00:00:00 10,6 10,0 10,4 13,4 16,2 18,7 9 5 14 8 SE 1019,0 15 0 0,5
22.09.2018 23:00:00 10,6 10,1 10,4 13,6 16,4 18,8 8 5 9 5 SE 1019,7 16 0 0,4
22.09.2018 22:00:00 10,5 9,7 10,2 13,9 16,5 18,8 5 3 11 6 SSE 1020,2 18 0 0,7
22.09.2018 21:00:00 10,5 9,6 10,1 14,2 16,7 18,8 6 3 13 7 SSW 1020,2 20 0 0,0
22.09.2018 20:00:00 10,9 9,7 10,5 14,7 16,8 18,8 8 4 24 13 S 1020,1 10 0 0,7
22.09.2018 19:00:00 11,7 9,3 10,6 15,1 16,9 18,9 7 4 16 9 SW 1020,3 30 0 0,2
22.09.2018 18:00:00 12,3 8,9 11,4 15,5 17,0 18,9 13 7 24 13 WNW 1020,4 10 0 0,1
22.09.2018 17:00:00 12,4 9,5 12,1 16,1 17,0 18,9 14 7 46 25 WNW 1020,5 45 0 0,0
22.09.2018 16:00:00 15,4 7,5 15,2 17,2 16,9 18,9 18 10 35 19 WNW 1019,9 30 0 0,0
22.09.2018 15:00:00 14,5 10,5 14,2 17,0 16,8 18,9 8 4 23 13 SSW 1020,2 50 0 0,6
22.09.2018 14:00:00 13,9 9,6 12,8 17,5 16,6 19,0 10 6 26 14 SSW 1020,4 50 0 0,2
22.09.2018 13:00:00 16,2 7,5 17,5 17,8 16,2 19,0 11 6 28 15 WSW 1020,5 10 1 0,0
22.09.2018 12:00:00 16,1 7,0 18,7 16,6 16,0 19,0 18 10 26 14 WSW 1021,2 10 42 0,0
22.09.2018 11:00:00 14,4 7,6 15,6 15,0 15,8 19,0 13 7 24 13 SW 1021,7 10 16 0,0
22.09.2018 10:00:00 13,0 7,4 13,4 13,7 15,8 19,0 16 9 25 14 SW 1021,9 10 0 0,0
22.09.2018 09:00:00 11,8 7,0 11,6 12,5 16,0 19,0 18 10 24 13 SSW 1021,3 45 0 0,0
22.09.2018 08:00:00 11,1 6,7 10,0 12,1 16,1 19,0 11 6 15 8 SW 1021,6 10 0 0,0
22.09.2018 07:00:00 10,8 6,6 9,5 12,2 16,3 19,1 11 6 16 8 SW 1020,8 10 0 0,0
22.09.2018 06:00:00 11,2 6,7 10,1 12,4 16,5 19,1 13 7 24 13 SW 1020,4 50 0 0,0
22.09.2018 05:00:00 12,0 6,8 10,7 12,6 16,7 19,1 17 9 25 13 WSW 1020,2 50 0 0,0
22.09.2018 04:00:00 12,1 6,7 11,0 12,9 16,9 19,1 13 7 26 14 WSW 1019,8 50 0 0,0
22.09.2018 03:00:00 12,9 6,6 12,0 12,9 17,1 19,1 18 10 32 17 WSW 1019,3 50 0 0,0
22.09.2018 02:00:00 13,1 6,3 11,7 13,0 17,4 19,1 22 12 37 20 WSW 1018,8 10 0 0,0
22.09.2018 01:00:00 13,1 5,8 11,4 13,3 17,7 19,1 21 11 36 19 WSW 1018,5 60 0 0,0
22.09.2018 00:00:00 13,4 5,5 11,9 13,6 18,0 19,1 19 11 37 20 WSW 1017,7 60 0 0,0
21.09.2018 23:00:00 13,7 5,1 12,1 13,9 18,3 19,1 22 12 36 20 WSW 1017,0 10 0 0,0
21.09.2018 22:00:00 13,5 4,3 11,8 14,3 18,6 19,1 21 11 29 16 WSW 1016,4 10 0 0,0
21.09.2018 21:00:00 12,9 5,3 10,8 15,1 18,9 19,1 12 6 31 17 SW 1015,0 60 0 0,0
21.09.2018 20:00:00 14,5 3,9 12,9 16,2 19,2 19,1 18 10 40 22 WSW 1013,9 10 18 0,0
21.09.2018 19:00:00 15,7 4,6 15,1 17,8 19,3 19,1 22 12 49 26 W 1012,8 60 59 0,0
21.09.2018 18:00:00 16,2 4,4 16,5 18,4 19,3 19,1 39 21 50 27 W 1012,6 10 44 0,0
21.09.2018 17:00:00 15,9 7,7 15,7 17,7 19,4 19,1 29 16 49 26 W 1011,9 60 0 0,0
21.09.2018 16:00:00 15,7 8,6 15,6 18,1 19,5 19,1 29 16 54 29 W 1011,1 10 0 0,0
21.09.2018 15:00:00 15,9 10,3 14,2 18,4 19,6 19,1 28 15 49 27 W 1009,9 10 0 0,1
21.09.2018 14:00:00 14,2 11,1 13,9 17,6 19,8 19,1 9 5 25 14 S 1009,4 50 0 0,0
21.09.2018 13:00:00 13,8 10,7 13,1 17,7 20,0 19,1 18 10 41 22 WSW 1009,4 10 0 0,0
21.09.2018 12:00:00 13,7 11,9 13,0 19,1 20,1 19,1 35 19 72 39 WNW 1008,8 10 0 0,9
21.09.2018 11:00:00 21,4 11,8 21,0 19,9 20,1 19,1 24 13 35 19 S 1006,1 10 0 0,0
21.09.2018 10:00:00 21,3 12,0 20,7 19,6 20,1 19,0 24 13 46 25 S 1006,1 55 0 0,0
21.09.2018 09:00:00 21,7 13,5 20,8 19,2 20,2 19,0 31 17 50 27 SSW 1005,9 50 0 0,0
21.09.2018 08:00:00 21,6 13,4 20,3 18,7 20,3 19,0 21 11 40 21 SSW 1005,8 10 0 0,0
21.09.2018 07:00:00 18,3 12,8 17,0 18,7 20,5 19,0 13 7 21 11 SSE 1006,5 60 0 0,0
21.09.2018 06:00:00 19,6 12,9 18,6 18,8 20,6 19,0 13 7 18 10 SE 1006,7 60 0 0,0
21.09.2018 05:00:00 19,8 13,2 18,3 18,9 20,9 19,0 13 7 21 11 SE 1007,8 10 0 0,0
21.09.2018 04:00:00 19,7 13,0 18,2 19,1 21,1 19,0 16 9 22 12 SE 1008,8 10 0 0,0
21.09.2018 03:00:00 19,5 12,3 18,3 19,3 21,3 19,0 15 8 16 9 SE 1009,6 10 0 0,0
21.09.2018 02:00:00 19,8 11,7 18,5 19,5 21,6 19,0 13 7 21 11 ESE 1010,0 10 0 0,0
21.09.2018 01:00:00 19,4 11,5 17,7 19,8 22,0 19,0 9 5 21 11 SE 1010,9 10 0 0,0
21.09.2018 00:00:00 19,6 11,1 17,8 20,3 22,3 19,0 8 4 13 7 ESE 1011,6 10 0 0,0
20.09.2018 23:00:00 19,8 10,7 17,9 21,1 22,7 19,0 11 6 16 9 SE 1012,3 10 0 0,0
20.09.2018 22:00:00 21,3 10,3 18,9 21,9 23,1 18,9 10 5 15 8 SE 1012,8 60 0 0,0
20.09.2018 21:00:00 20,1 10,0 18,3 23,1 23,4 18,9 13 7 15 8 SSE 1013,3 10 0 0,0
20.09.2018 20:00:00 22,5 9,4 20,3 24,8 23,6 18,9 13 7 25 14 SSW 1013,4 10 0 0,0
20.09.2018 19:00:00 25,6 9,6 24,4 26,8 23,6 18,9 16 9 31 17 SSW 1013,4 10 42 0,0
20.09.2018 18:00:00 27,0 10,3 27,5 28,6 23,4 18,9 16 9 29 15 S 1013,9 10 60 0,0
20.09.2018 17:00:00 27,2 10,6 29,5 29,7 22,9 18,9 15 8 32 17 S 1014,8 10 60 0,0
20.09.2018 16:00:00 27,7 10,3 30,6 30,0 22,3 18,9 17 9 37 20 SSW 1015,5 55 60 0,0
20.09.2018 15:00:00 27,1 11,8 30,5 29,6 21,6 18,9 18 10 36 20 SW 1016,3 10 60 0,0
20.09.2018 14:00:00 26,0 12,1 30,0 28,0 20,9 18,9 21 11 35 19 SW 1016,9 10 58 0,0
20.09.2018 13:00:00 24,8 13,0 28,2 26,2 20,2 18,9 17 9 34 18 SW 1017,5 45 39 0,0
20.09.2018 12:00:00 24,6 13,2 28,6 25,1 19,7 18,9 21 11 36 20 SSW 1018,2 10 59 0,0
20.09.2018 11:00:00 22,9 13,4 25,8 21,9 19,4 18,9 11 6 25 14 SSW 1018,5 45 53 0,0
20.09.2018 10:00:00 19,6 13,2 21,4 19,2 19,3 18,9 11 6 15 8 S 1018,7 10 59 0,0
20.09.2018 09:00:00 17,4 12,9 17,9 17,0 19,5 18,9 6 4 15 8 SE 1018,8 35 50 0,0
20.09.2018 08:00:00 15,2 12,5 13,8 16,3 19,8 18,8 4 2 16 9 - 1018,7 10 1 0,0
20.09.2018 07:00:00 13,5 11,6 11,0 16,6 20,0 18,8 9 5 11 6 E 1018,8 35 0 0,0
20.09.2018 06:00:00 15,3 12,4 13,5 17,1 20,4 18,8 7 4 9 5 E 1018,4 35 0 0,0
20.09.2018 05:00:00 15,5 12,3 13,3 17,7 20,7 18,8 6 3 11 6 E 1018,8 35 0 0,0
20.09.2018 04:00:00 16,7 12,7 15,0 18,0 21,0 18,8 8 4 11 6 SE 1018,6 10 0 0,0
20.09.2018 03:00:00 16,4 12,4 13,9 18,5 21,3 18,8 2 1 11 6 - 1018,6 10 0 0,0
20.09.2018 02:00:00 16,5 12,5 13,6 19,1 21,7 18,8 4 2 11 6 - 1019,2 10 0 0,0
20.09.2018 01:00:00 16,6 12,5 14,2 19,8 22,1 18,7 6 3 8 4 ESE 1019,5 40 0 0,0
20.09.2018 00:00:00 18,4 12,7 14,3 20,6 22,5 18,7 2 1 12 7 - 1019,4 10 0 0,0
19.09.2018 23:00:00 19,9 12,6 16,6 21,7 22,8 18,7 5 3 16 9 NNW 1018,9 10 0 0,0
19.09.2018 22:00:00 22,9 13,0 20,9 22,7 23,1 18,7 15 8 18 10 WNW 1018,3 10 0 0,0
19.09.2018 21:00:00 23,3 13,1 21,4 23,9 23,4 18,7 15 8 24 13 WSW 1017,7 10 0 0,0
19.09.2018 20:00:00 25,0 12,8 23,4 25,5 23,5 18,7 21 11 30 16 WSW 1017,0 10 14 0,0
19.09.2018 19:00:00 27,3 13,2 26,6 27,5 23,4 18,7 21 12 35 19 SW 1016,3 60 59 0,0
19.09.2018 18:00:00 28,7 13,1 29,8 29,0 23,1 18,7 23 12 38 21 SW 1015,9 60 60 0,0
19.09.2018 17:00:00 29,5 13,9 31,7 29,5 22,6 18,7 21 11 35 19 SW 1016,1 10 56 0,0
19.09.2018 16:00:00 28,8 13,4 31,1 29,2 22,1 18,7 22 12 38 21 SW 1016,4 10 49 0,0

tt = Température de l'air
td = dewpoint
tt 5cm = Température de l'air 5cm
tt -5cm = Température de l'air -5cm
tt -20cm = Température de l'air -20cm
tt -100cm = Température de l'air -100cm
ff = Vitesse du vent
fx = gusts
dd = Direction du vent
ppp = reduced air pressure
vv = visibility
sd = Ensoleillement
rr = Quantités de précipitations

stations d'obs. à proximité